Location: Béaulencourt
(50.0796°N, 2.8795°E)
Time: 17:36:57
(UTC+00:00)

Envisat - Pass Details

Date: 22 March 2026
Orbit: 761 x 762 km, 98.4° (Epoch: 14 April)

Event Time Altitude Azimuth Distance (km) Brightness Sun altitude
Rises 01:36:09 0° 23° (NNE) 3,236 7.3 -35.0°
Reaches altitude 10° 01:38:49 10° 35° (NE) 2,305 6.3 -34.7°
Enters shadow 01:42:18 26° 78° (ENE) 1,478 4.8 -34.4°
